User: anonymous   Login
Location: Unspecified
(0.0000°N, 0.0000°E)
Time: 02:07:49
(UTC+00:00)
Language:

NAVSTAR 65 (USA 213) - Orbit

View from above orbital plane
View from above orbital plane
View from above satellite
View from above satellite

Ground track
Ground track

The orbit data is extracted from the following two-line orbital elements,

1 36585U 10022A   16210.34771068 -.00000074  00000-0  00000+0 0  9999
2 36585  56.0631 353.4553 0054488  43.8542  28.1494  2.00558336 45169
Epoch (UTC): 28 July 2016 08:20:42
Eccentricity: 0.0054488
inclination: 56.0631°
perigee height: 20038 km
apogee height: 20327 km
right ascension of ascending node: 353.4553°
argument of perigee: 43.8542°
revolutions per day: 2.00558336
mean anomaly at epoch: 28.1494°
orbit number at epoch: 4516

The dashed part of the orbit path shows where the satellite is in the earth's shadow,  

DLR